Starlink 2119

operational
NORAD ID: 47397 Int'l Des: 2021-005 Owner: SPXS Country: US Constellation: starlink
LEOCIRCULARSTARLINK_TYPE

Über Starlink 2119

Beschreibung wird geladen...

Live-Position

3D-Globus wird geladen...

Nächste Überflüge

Höhenverlauf

Altitude vs Time

uPlot chart will show altitude changes over time

Zweizeiliger Elementsatz

1 47397U 21005BA 25258.78733871 .00020547 00000-0 13955-2 0 9997
2 47397 53.0538 126.7889 0001245 105.2859 254.8268 15.06367629256686
Epoch: 15. Sept. 2025 • Age: 13 hours

Aktueller Status

Höhe 552.9 km
Geschwindigkeit 7.59 km/s
Subsatellitenpunkt 53.15°N, 101.71°E
Startdatum 20. Jan. 2021
Alter 4.6 years
Typ internet

Technische Details

Klassifizierung Payload
Masse 260.00 kg
Trockenmasse 248.00 kg
Gesamtmasse 260.00 kg
Länge 0.20 m
Durchmesser 2.80 m
Spannweite 9.00 m
Form Box + pan
Hersteller SPXS
Bus-Typ Starlink
Phasenstatus In Orbit
Besitzer/Staat SPXS/US

Große Konstellationen

Loading constellations...